Location: Salillas
(41.9950°N, 0.2228°W)
Time: 20:16:32
(UTC+00:00)

STARLINK-1081 - Pass Details

Date: 29 March 2020
Orbit: 548 x 551 km, 53.0° (Epoch: 31 May)

Event Time Altitude Azimuth Distance (km) Brightness Sun altitude
Rises 19:24:29 0° 302° (WNW) 2,792 8.9 -11.9°
Reaches altitude 10° 19:26:51 10° 295° (WNW) 1,887 7.8 -12.3°
Maximum altitude 19:30:51 39° 226° (SW) 859 4.8 -13.0°
Enters shadow 19:34:45 11° 157° (SSE) 1,831 5.9 -13.7°
